CEB572 RPVM-RPLL

Flight info

Callsign CEB572
Flight time 1h 9m
Altitude 34000
Route PARAO4P PARAO DCT ROX B473 LAIYA LAIYA3R
Aircraft A21N/M-SDE3FGHIRWY/LB1

Departure

Time 2026-05-04 13:04
Airport Mactan Cebu International Airport (RPVM)

Arrival

Time 2026-05-04 14:14
Airport Ninoy Aquino International Airport (RPLL)
Time Latitude Longitude Altitude Speed Heading
2026-05-04 12:47 10.31503 123.97930 44 ft 0 kts 314°
2026-05-04 12:55 10.31493 123.97940 44 ft 2 kts 314°
2026-05-04 12:55 10.31483 123.97952 44 ft 2 kts 315°
2026-05-04 12:55 10.31476 123.97958 44 ft 2 kts 313°
2026-05-04 12:56 10.31468 123.97971 44 ft 2 kts 288°
2026-05-04 12:56 10.31465 123.97987 44 ft 2 kts 269°
2026-05-04 12:56 10.31473 123.98013 44 ft 2 kts 233°
2026-05-04 12:57 10.31478 123.98020 44 ft 0 kts 223°
2026-05-04 12:57 10.31466 123.98007 44 ft 6 kts 225°
2026-05-04 12:57 10.31442 123.97983 44 ft 2 kts 224°
2026-05-04 12:57 10.31438 123.97979 44 ft 0 kts 224°
2026-05-04 12:59 10.31436 123.97977 44 ft 1 kts 224°
2026-05-04 13:00 10.31425 123.97966 44 ft 3 kts 224°
2026-05-04 13:00 10.31401 123.97942 44 ft 6 kts 224°
2026-05-04 13:00 10.31352 123.97902 44 ft 11 kts 199°
2026-05-04 13:00 10.31270 123.97952 44 ft 17 kts 135°
2026-05-04 13:01 10.31193 123.97968 44 ft 19 kts 207°
2026-05-04 13:02 10.30612 123.97389 44 ft 15 kts 225°
2026-05-04 13:02 10.30535 123.97311 44 ft 15 kts 225°
2026-05-04 13:03 10.30460 123.97234 44 ft 15 kts 224°
2026-05-04 13:03 10.30379 123.97169 44 ft 14 kts 200°
2026-05-04 13:03 10.30324 123.97222 44 ft 13 kts 73°
2026-05-04 13:03 10.30418 123.97334 44 ft 39 kts 44°
2026-05-04 13:04 10.30821 123.97737 44 ft 120 kts 44°
2026-05-04 13:04 10.31561 123.98481 202 ft 167 kts 45°
2026-05-04 13:04 10.32400 123.99328 852 ft 175 kts 45°
2026-05-04 13:04 10.33277 124.00212 1576 ft 184 kts 45°
2026-05-04 13:05 10.34189 124.01133 2375 ft 189 kts 45°
2026-05-04 13:05 10.35219 124.01955 2978 ft 196 kts 21°
2026-05-04 13:05 10.36583 124.01955 3321 ft 210 kts 338°
2026-05-04 13:05 10.37863 124.01115 3719 ft 224 kts 323°
2026-05-04 13:06 10.39175 124.00121 4041 ft 248 kts 323°
2026-05-04 13:06 10.40608 123.99078 4482 ft 265 kts 324°
2026-05-04 13:06 10.42119 123.98015 5201 ft 270 kts 326°
2026-05-04 13:06 10.43676 123.96944 6012 ft 272 kts 326°
2026-05-04 13:07 10.45233 123.95884 6783 ft 275 kts 326°
2026-05-04 13:07 10.46813 123.94801 7544 ft 278 kts 322°
2026-05-04 13:07 10.48220 123.93449 8290 ft 281 kts 309°
2026-05-04 13:07 10.49369 123.91834 9025 ft 285 kts 307°
2026-05-04 13:08 10.50659 123.90302 9757 ft 288 kts 313°
2026-05-04 13:08 10.52047 123.88847 10455 ft 291 kts 315°
2026-05-04 13:08 10.53496 123.87362 10848 ft 306 kts 315°
2026-05-04 13:08 10.55041 123.85773 11288 ft 318 kts 314°
2026-05-04 13:09 10.56582 123.84177 11956 ft 321 kts 314°
2026-05-04 13:09 10.58144 123.82552 12640 ft 324 kts 314°
2026-05-04 13:09 10.59710 123.80918 13287 ft 327 kts 314°
2026-05-04 13:09 10.61316 123.79237 13930 ft 330 kts 314°
2026-05-04 13:10 10.62916 123.77563 14551 ft 333 kts 314°
2026-05-04 13:10 10.64534 123.75867 15160 ft 336 kts 314°
2026-05-04 13:10 10.66150 123.74172 15749 ft 339 kts 314°
2026-05-04 13:10 10.67794 123.72446 16329 ft 342 kts 314°
2026-05-04 13:11 10.69449 123.70710 16895 ft 345 kts 314°
2026-05-04 13:11 10.71128 123.68948 17450 ft 348 kts 314°
2026-05-04 13:11 10.72830 123.67161 17995 ft 351 kts 314°
2026-05-04 13:11 10.74532 123.65374 18522 ft 354 kts 314°
2026-05-04 13:12 10.76225 123.63596 19029 ft 357 kts 314°
2026-05-04 13:12 10.77952 123.61781 19531 ft 359 kts 314°
2026-05-04 13:12 10.79301 123.60364 19913 ft 361 kts 314°
2026-05-04 13:12 10.80839 123.58747 20338 ft 364 kts 314°
2026-05-04 13:13 10.82219 123.57297 20711 ft 366 kts 314°
2026-05-04 13:13 10.83968 123.55459 21172 ft 368 kts 314°
2026-05-04 13:13 10.85775 123.53558 21633 ft 371 kts 314°
2026-05-04 13:13 10.87580 123.51660 22081 ft 374 kts 314°
2026-05-04 13:14 10.89418 123.49728 22524 ft 376 kts 314°
2026-05-04 13:14 10.91239 123.47813 22950 ft 379 kts 314°
2026-05-04 13:14 10.93104 123.45850 23372 ft 381 kts 314°
2026-05-04 13:14 10.94950 123.43907 23779 ft 384 kts 314°
2026-05-04 13:15 10.96800 123.41960 24177 ft 386 kts 314°
2026-05-04 13:15 10.98659 123.40002 24566 ft 388 kts 314°
2026-05-04 13:15 11.00562 123.37999 24954 ft 391 kts 314°
2026-05-04 13:15 11.02436 123.36025 25325 ft 393 kts 314°
2026-05-04 13:16 11.04345 123.34013 25693 ft 395 kts 314°
2026-05-04 13:16 11.06255 123.32001 26051 ft 397 kts 314°
2026-05-04 13:16 11.08149 123.30006 26397 ft 400 kts 314°
2026-05-04 13:16 11.10095 123.27956 26742 ft 402 kts 314°
2026-05-04 13:17 11.12032 123.25913 27075 ft 404 kts 314°
2026-05-04 13:17 11.13985 123.23858 27407 ft 406 kts 315°
2026-05-04 13:17 11.15960 123.21789 27791 ft 406 kts 314°
2026-05-04 13:17 11.17908 123.19726 28087 ft 409 kts 314°
2026-05-04 13:18 11.19878 123.17635 28359 ft 412 kts 314°
2026-05-04 13:18 11.21867 123.15527 28659 ft 414 kts 314°
2026-05-04 13:18 11.23872 123.13406 28968 ft 416 kts 314°
2026-05-04 13:18 11.25862 123.11302 29267 ft 418 kts 314°
2026-05-04 13:19 11.27889 123.09160 29565 ft 420 kts 314°
2026-05-04 13:19 11.29938 123.06995 29860 ft 422 kts 314°
2026-05-04 13:19 11.31961 123.04857 30147 ft 424 kts 314°
2026-05-04 13:19 11.34025 123.02676 30431 ft 426 kts 314°
2026-05-04 13:20 11.36079 123.00504 30707 ft 428 kts 314°
2026-05-04 13:20 11.38127 122.98340 30978 ft 430 kts 314°
2026-05-04 13:20 11.40214 122.96133 31248 ft 432 kts 314°
2026-05-04 13:20 11.42292 122.93935 31510 ft 433 kts 314°
2026-05-04 13:21 11.44403 122.91703 31770 ft 435 kts 314°
2026-05-04 13:21 11.46486 122.89498 32021 ft 437 kts 314°
2026-05-04 13:21 11.48586 122.87277 32267 ft 439 kts 314°
2026-05-04 13:21 11.50715 122.85023 32511 ft 440 kts 314°
2026-05-04 13:22 11.52851 122.82761 32751 ft 442 kts 314°
2026-05-04 13:22 11.54990 122.80496 32983 ft 444 kts 314°
2026-05-04 13:22 11.57165 122.78267 33206 ft 445 kts 316°
2026-05-04 13:22 11.59433 122.76179 33425 ft 447 kts 320°
2026-05-04 13:23 11.61853 122.74192 33641 ft 448 kts 323°
2026-05-04 13:23 11.64380 122.72352 33852 ft 450 kts 326°
2026-05-04 13:23 11.67034 122.70553 33990 ft 452 kts 327°
2026-05-04 13:24 11.72279 122.67040 33997 ft 451 kts 327°
2026-05-04 13:24 11.77525 122.63519 33999 ft 451 kts 327°
2026-05-04 13:25 11.85352 122.58250 33999 ft 451 kts 327°
2026-05-04 13:25 11.90585 122.54722 34000 ft 451 kts 327°
2026-05-04 13:26 11.95787 122.51213 33999 ft 451 kts 327°
2026-05-04 13:26 12.01022 122.47680 33999 ft 451 kts 327°
2026-05-04 13:27 12.06263 122.44141 33999 ft 451 kts 327°
2026-05-04 13:27 12.11476 122.40619 34000 ft 451 kts 327°
2026-05-04 13:28 12.16686 122.37099 34000 ft 451 kts 327°
2026-05-04 13:28 12.21919 122.33560 34000 ft 451 kts 326°
2026-05-04 13:29 12.27158 122.30015 34000 ft 451 kts 326°
2026-05-04 13:29 12.32381 122.26480 33723 ft 449 kts 326°
2026-05-04 13:30 12.34962 122.24731 33474 ft 447 kts 326°
2026-05-04 13:30 12.37538 122.22984 33224 ft 445 kts 326°
2026-05-04 13:30 12.40103 122.21214 32973 ft 444 kts 326°
2026-05-04 13:30 12.42700 122.19409 32718 ft 442 kts 326°
2026-05-04 13:31 12.45262 122.17626 32465 ft 440 kts 326°
2026-05-04 13:31 12.47803 122.15859 32212 ft 438 kts 326°
2026-05-04 13:31 12.50367 122.14076 31957 ft 436 kts 326°
2026-05-04 13:31 12.52903 122.12312 31703 ft 435 kts 326°
2026-05-04 13:32 12.55413 122.10568 31451 ft 433 kts 326°
2026-05-04 13:32 12.57887 122.08848 31202 ft 431 kts 326°
2026-05-04 13:32 12.60370 122.07121 30950 ft 430 kts 326°
2026-05-04 13:32 12.62836 122.05405 30700 ft 428 kts 326°
2026-05-04 13:33 12.65259 122.03719 30452 ft 426 kts 326°
2026-05-04 13:33 12.67701 122.02021 30202 ft 424 kts 326°
2026-05-04 13:33 12.70150 122.00317 29949 ft 423 kts 326°
2026-05-04 13:33 12.72585 121.98621 29698 ft 421 kts 326°
2026-05-04 13:34 12.75035 121.96915 29444 ft 419 kts 326°
2026-05-04 13:34 12.77437 121.95242 29194 ft 418 kts 326°
2026-05-04 13:34 12.79828 121.93577 28944 ft 416 kts 326°
2026-05-04 13:34 12.82243 121.91894 28691 ft 414 kts 326°
2026-05-04 13:35 12.84668 121.90204 28435 ft 413 kts 326°
2026-05-04 13:35 12.89425 121.86887 27931 ft 409 kts 326°
2026-05-04 13:35 12.91782 121.85244 27679 ft 408 kts 326°
2026-05-04 13:36 12.94126 121.83609 27428 ft 406 kts 326°
2026-05-04 13:36 12.96470 121.81973 27172 ft 404 kts 326°
2026-05-04 13:36 12.98762 121.80373 26918 ft 403 kts 326°
2026-05-04 13:36 13.01071 121.78761 26629 ft 400 kts 326°
2026-05-04 13:37 13.03357 121.77165 26211 ft 397 kts 326°
2026-05-04 13:37 13.05642 121.75570 25703 ft 395 kts 326°
2026-05-04 13:37 13.07870 121.74013 25223 ft 392 kts 326°
2026-05-04 13:37 13.09372 121.72964 24908 ft 390 kts 326°
2026-05-04 13:38 13.12345 121.70886 24285 ft 386 kts 326°
2026-05-04 13:38 13.14573 121.69329 23814 ft 383 kts 326°
2026-05-04 13:38 13.16750 121.67807 23351 ft 381 kts 326°
2026-05-04 13:38 13.18945 121.66272 22887 ft 378 kts 326°
2026-05-04 13:39 13.21096 121.64767 22430 ft 375 kts 326°
2026-05-04 13:39 13.23230 121.63274 21975 ft 373 kts 326°
2026-05-04 13:39 13.25370 121.61777 21517 ft 370 kts 326°
2026-05-04 13:39 13.27488 121.60294 21063 ft 367 kts 326°
2026-05-04 13:40 13.29596 121.58818 20611 ft 365 kts 326°
2026-05-04 13:40 13.31680 121.57359 20162 ft 362 kts 326°
2026-05-04 13:40 13.33752 121.55907 19713 ft 360 kts 326°
2026-05-04 13:40 13.35789 121.54481 19271 ft 357 kts 326°
2026-05-04 13:41 13.37841 121.53043 18823 ft 355 kts 326°
2026-05-04 13:41 13.39866 121.51623 18380 ft 353 kts 326°
2026-05-04 13:41 13.41914 121.50188 17929 ft 350 kts 326°
2026-05-04 13:42 13.45893 121.47398 17051 ft 346 kts 326°
2026-05-04 13:42 13.47878 121.46008 16619 ft 343 kts 326°
2026-05-04 13:42 13.49837 121.44631 16186 ft 340 kts 326°
2026-05-04 13:42 13.51771 121.43272 16004 ft 338 kts 326°
2026-05-04 13:43 13.53702 121.41916 15998 ft 335 kts 326°
2026-05-04 13:43 13.55597 121.40585 15994 ft 319 kts 326°
2026-05-04 13:43 13.57419 121.39307 15997 ft 316 kts 326°
2026-05-04 13:43 13.59230 121.38044 15998 ft 316 kts 326°
2026-05-04 13:44 13.61066 121.36767 15999 ft 316 kts 326°
2026-05-04 13:44 13.62871 121.35513 15999 ft 316 kts 326°
2026-05-04 13:44 13.64676 121.34257 15999 ft 316 kts 326°
2026-05-04 13:44 13.66511 121.32980 15999 ft 316 kts 326°
2026-05-04 13:45 13.68331 121.31713 15999 ft 316 kts 326°
2026-05-04 13:45 13.70180 121.30545 15906 ft 316 kts 335°
2026-05-04 13:45 13.72247 121.29746 15658 ft 314 kts 342°
2026-05-04 13:45 13.74330 121.29085 15408 ft 313 kts 343°
2026-05-04 13:46 13.76409 121.28423 15157 ft 312 kts 342°
2026-05-04 13:46 13.78469 121.27746 14907 ft 310 kts 342°
2026-05-04 13:46 13.80500 121.27058 14658 ft 309 kts 341°
2026-05-04 13:46 13.82529 121.26360 14409 ft 308 kts 341°
2026-05-04 13:47 13.84551 121.25655 14159 ft 307 kts 341°
2026-05-04 13:47 13.86566 121.24948 13908 ft 306 kts 341°
2026-05-04 13:47 13.88566 121.24244 13659 ft 305 kts 341°
2026-05-04 13:47 13.90576 121.23534 13407 ft 303 kts 341°
2026-05-04 13:48 13.92566 121.22831 13157 ft 302 kts 341°
2026-05-04 13:48 13.94550 121.22129 13007 ft 301 kts 341°
2026-05-04 13:48 13.96530 121.21429 13002 ft 301 kts 341°
2026-05-04 13:48 13.98513 121.20726 13000 ft 302 kts 341°
2026-05-04 13:49 14.00504 121.20021 13000 ft 302 kts 341°
2026-05-04 13:49 14.02499 121.19314 12999 ft 302 kts 341°
2026-05-04 13:49 14.04476 121.18613 12999 ft 302 kts 341°
2026-05-04 13:49 14.06454 121.17912 12999 ft 302 kts 341°
2026-05-04 13:50 14.08452 121.17204 12999 ft 302 kts 341°
2026-05-04 13:50 14.10432 121.16502 12999 ft 302 kts 341°
2026-05-04 13:50 14.12423 121.15796 12999 ft 302 kts 341°
2026-05-04 13:50 14.14409 121.15091 12999 ft 302 kts 341°
2026-05-04 13:51 14.16447 121.14368 12999 ft 302 kts 341°
2026-05-04 13:51 14.18424 121.13666 12998 ft 301 kts 341°
2026-05-04 13:51 14.20395 121.12968 12813 ft 297 kts 341°
2026-05-04 13:51 14.22335 121.12278 12368 ft 298 kts 341°
2026-05-04 13:52 14.26245 121.10889 11577 ft 295 kts 341°
2026-05-04 13:52 14.28182 121.10201 11198 ft 293 kts 341°
2026-05-04 13:52 14.30092 121.09515 10820 ft 292 kts 338°
2026-05-04 13:53 14.31807 121.08406 10389 ft 291 kts 314°
2026-05-04 13:53 14.32870 121.06651 9991 ft 289 kts 287°
2026-05-04 13:53 14.33075 121.04640 9598 ft 287 kts 262°
2026-05-04 13:54 14.31461 121.00936 8838 ft 283 kts 238°
2026-05-04 13:54 14.30429 120.99219 8451 ft 282 kts 238°
2026-05-04 13:54 14.28356 120.95827 7701 ft 279 kts 237°
2026-05-04 13:55 14.27325 120.94143 7326 ft 277 kts 237°
2026-05-04 13:55 14.25290 120.90820 7056 ft 273 kts 238°
2026-05-04 13:55 14.24276 120.89163 6751 ft 272 kts 238°
2026-05-04 13:56 14.23260 120.87504 6312 ft 273 kts 238°
2026-05-04 13:56 14.22258 120.85867 6076 ft 270 kts 238°
2026-05-04 13:56 14.20233 120.82559 6071 ft 272 kts 238°
2026-05-04 13:57 14.19226 120.80913 6070 ft 272 kts 238°
2026-05-04 13:57 14.18213 120.79259 6070 ft 272 kts 238°
2026-05-04 13:58 14.15188 120.74316 6069 ft 272 kts 238°
2026-05-04 13:58 14.13161 120.71003 6069 ft 272 kts 238°
2026-05-04 13:58 14.12148 120.69349 6069 ft 272 kts 238°
2026-05-04 13:59 14.11135 120.67693 6069 ft 272 kts 238°
2026-05-04 13:59 14.10124 120.66041 6069 ft 272 kts 238°
2026-05-04 13:59 14.08112 120.62752 6069 ft 272 kts 238°
2026-05-04 14:00 14.07109 120.61081 6036 ft 269 kts 242°
2026-05-04 14:00 14.06945 120.57382 5223 ft 269 kts 297°
2026-05-04 14:00 14.08053 120.55865 5080 ft 267 kts 314°
2026-05-04 14:01 14.09561 120.54768 5055 ft 268 kts 342°
2026-05-04 14:01 14.11395 120.54644 5065 ft 268 kts 12°
2026-05-04 14:01 14.14615 120.56490 5070 ft 261 kts 35°
2026-05-04 14:02 14.16065 120.57531 5062 ft 245 kts 35°
2026-05-04 14:02 14.17419 120.58489 5054 ft 229 kts 34°
2026-05-04 14:02 14.18724 120.59398 5061 ft 225 kts 34°
2026-05-04 14:02 14.20023 120.60292 5066 ft 224 kts 34°
2026-05-04 14:03 14.21321 120.61181 5068 ft 224 kts 33°
2026-05-04 14:03 14.22637 120.62079 5069 ft 224 kts 33°
2026-05-04 14:03 14.23953 120.62974 5069 ft 224 kts 33°
2026-05-04 14:03 14.25259 120.63863 5069 ft 224 kts 33°
2026-05-04 14:04 14.27860 120.65633 5070 ft 224 kts 33°
2026-05-04 14:04 14.29151 120.66511 5070 ft 224 kts 33°
2026-05-04 14:04 14.30430 120.67452 5070 ft 224 kts 39°
2026-05-04 14:05 14.32570 120.69477 5095 ft 190 kts 51°
2026-05-04 14:05 14.33302 120.70519 5050 ft 171 kts 57°
2026-05-04 14:05 14.33922 120.71538 5048 ft 165 kts 59°
2026-05-04 14:06 14.34511 120.72551 5061 ft 164 kts 59°
2026-05-04 14:06 14.35090 120.73563 5066 ft 164 kts 59°
2026-05-04 14:06 14.35670 120.74589 5068 ft 164 kts 60°
2026-05-04 14:06 14.36252 120.75624 5069 ft 164 kts 60°
2026-05-04 14:07 14.36821 120.76644 5063 ft 164 kts 60°
2026-05-04 14:07 14.37392 120.77670 4907 ft 164 kts 60°
2026-05-04 14:07 14.37955 120.78686 4687 ft 163 kts 60°
2026-05-04 14:07 14.38514 120.79695 4471 ft 163 kts 60°
2026-05-04 14:08 14.39076 120.80711 4254 ft 162 kts 60°
2026-05-04 14:08 14.39632 120.81717 4039 ft 162 kts 60°
2026-05-04 14:08 14.40191 120.82728 3824 ft 161 kts 60°
2026-05-04 14:08 14.40748 120.83735 3610 ft 161 kts 60°
2026-05-04 14:09 14.41851 120.85726 3186 ft 160 kts 60°
2026-05-04 14:09 14.42402 120.86719 2975 ft 159 kts 60°
2026-05-04 14:10 14.43499 120.88696 2554 ft 158 kts 60°
2026-05-04 14:10 14.44037 120.89667 2380 ft 152 kts 60°
2026-05-04 14:10 14.44557 120.90602 2161 ft 147 kts 60°
2026-05-04 14:10 14.44890 120.91203 2027 ft 146 kts 60°
2026-05-04 14:11 14.45392 120.92107 1830 ft 145 kts 60°
2026-05-04 14:11 14.46565 120.94218 1376 ft 144 kts 60°
2026-05-04 14:11 14.47062 120.95114 1186 ft 144 kts 60°
2026-05-04 14:12 14.47566 120.96019 996 ft 144 kts 60°
2026-05-04 14:12 14.48063 120.96915 807 ft 143 kts 60°
2026-05-04 14:12 14.49056 120.98695 428 ft 142 kts 60°
2026-05-04 14:13 14.49550 120.99587 242 ft 143 kts 60°
2026-05-04 14:13 14.50041 121.00469 104 ft 139 kts 60°
2026-05-04 14:13 14.50480 121.01257 84 ft 108 kts 62°
2026-05-04 14:13 14.50768 121.01782 84 ft 64 kts 61°
2026-05-04 14:14 14.50959 121.02122 84 ft 32 kts 53°
2026-05-04 14:14 14.51167 121.02306 84 ft 7 kts 346°
2026-05-04 14:14 14.51189 121.02277 84 ft 5 kts 274°
2026-05-04 14:15 14.51153 121.02193 84 ft 7 kts 240°
2026-05-04 14:15 14.51101 121.02096 84 ft 8 kts 240°
2026-05-04 14:16 14.51088 121.02073 84 ft 0 kts 240°
2026-05-04 14:16 14.51082 121.02062 84 ft 4 kts 240°
2026-05-04 14:17 14.51117 121.01939 84 ft 11 kts 314°
2026-05-04 14:17 14.51176 121.01877 84 ft 12 kts 314°
2026-05-04 14:17 14.51301 121.01753 84 ft 12 kts 314°
2026-05-04 14:18 14.51361 121.01687 84 ft 12 kts 313°
2026-05-04 14:18 14.51488 121.01556 84 ft 13 kts 315°
2026-05-04 14:19 14.51617 121.01422 84 ft 13 kts 315°
2026-05-04 14:19 14.51682 121.01355 84 ft 13 kts 315°
2026-05-04 14:19 14.51748 121.01286 84 ft 13 kts 315°
2026-05-04 14:19 14.51814 121.01218 84 ft 13 kts 315°
2026-05-04 14:20 14.51881 121.01150 84 ft 13 kts 315°
2026-05-04 14:20 14.51948 121.01080 84 ft 13 kts 315°
2026-05-04 14:20 14.52015 121.01012 84 ft 13 kts 315°
2026-05-04 14:21 14.52149 121.00874 84 ft 13 kts 315°
2026-05-04 14:21 14.52216 121.00803 84 ft 13 kts 314°
2026-05-04 14:21 14.52282 121.00735 84 ft 7 kts 315°
2026-05-04 14:21 14.52319 121.00697 84 ft 7 kts 316°
2026-05-04 14:22 14.52358 121.00683 84 ft 6 kts 32°
2026-05-04 14:22 14.52390 121.00714 84 ft 6 kts 44°
2026-05-04 14:22 14.52414 121.00737 84 ft 0 kts 44°
2026-05-04 14:23 14.52417 121.00740 84 ft 0 kts 44°